カタログに戻る

SL-8 R/B

運用中PO
NORAD 8597·ROCKET BODY·🇷🇺 Russia

打ち上げ Jan 20, 1976 から Plesetsk Cosmodrome

Loading…

次のパス (今後24時間)

TLE

最新Source: Space-Track

元期: Sep 14, 2026, 00:31 UTC

1 08597U 76005B   26257.02200131  .00000095  00000-0  82202-4 0  9990
2 08597  82.9681  93.6377 0025656 156.1222 357.5848 13.75515573540813

AllMySatでSL-8 R/Bをリアルタイム追跡

Download on the App Store